When you browse on this site, cookies collect data to enhance your experience and personalize the content and advertising you see.
Visit our Privacy Policy to learn more. By continuing to use the site, you agree to this use of cookies and data.
  • En España
  • Lista de países
  • Para 7 días
  • Temperatura del agua
  • El tiempo en el mapa
  • Informadores
  • user-avatar
    Iniciar sesión

    Tiempo cada hora Fier

    Hoy, 12 Diciembre, Jueves

    Tiempo Temperatura Precipitaciones Viento Presión Humedad
    00:00 +9°C° 0 mm 3 mps 754 mmHg 74%
    01:00 +9°C° 0 mm 2 mps 754 mmHg 75%
    02:00 +9°C° 0 mm 2 mps 754 mmHg 75%
    03:00 +9°C° 0 mm 3 mps 753 mmHg 76%
    04:00 +8°C° 0 mm 3 mps 753 mmHg 76%
    05:00 +8°C° 0 mm 2 mps 753 mmHg 76%
    06:00 +8°C° 0 mm 2 mps 753 mmHg 76%
    07:00 +8°C° 0 mm 2 mps 753 mmHg 75%
    08:00 +10°C° 0 mm 2 mps 753 mmHg 71%
    09:00 +12°C° 0 mm 2 mps 753 mmHg 67%
    10:00 +13°C° 0 mm 2 mps 753 mmHg 63%
    11:00 +14°C° 0 mm 2 mps 752 mmHg 62%
    12:00 +15°C° 0 mm 2 mps 752 mmHg 60%
    13:00 +15°C° 0 mm 2 mps 752 mmHg 58%
    14:00 +15°C° 0.2 mm 2 mps 752 mmHg 66%
    15:00 +14°C° 0.2 mm 2 mps 751 mmHg 73%
    16:00 +13°C° 0.2 mm 2 mps 751 mmHg 81%
    17:00 +11°C° 0.5 mm 3 mps 751 mmHg 82%
    18:00 +11°C° 0.5 mm 3 mps 751 mmHg 83%
    19:00 +11°C° 0.5 mm 3 mps 752 mmHg 84%
    20:00 +11°C° 0.2 mm 3 mps 751 mmHg 83%
    21:00 +10°C° 0.2 mm 3 mps 751 mmHg 82%
    22:00 +10°C° 0.2 mm 3 mps 751 mmHg 81%
    23:00 +10°C° 0.2 mm 3 mps 751 mmHg 80%

    Mañana, 13 Diciembre, Viernes

    Tiempo Temperatura Precipitaciones Viento Presión Humedad
    00:00 +10°C° 0.2 mm 3 mps 751 mmHg 80%
    01:00 +10°C° 0.2 mm 3 mps 750 mmHg 80%
    02:00 +10°C° 0.6 mm 3 mps 750 mmHg 80%
    03:00 +10°C° 0.6 mm 3 mps 750 mmHg 81%
    04:00 +10°C° 0.6 mm 3 mps 750 mmHg 82%
    05:00 +10°C° 0.3 mm 3 mps 750 mmHg 80%
    06:00 +10°C° 0.3 mm 3 mps 750 mmHg 78%
    07:00 +10°C° 0.3 mm 3 mps 750 mmHg 76%
    08:00 +11°C° 0.2 mm 3 mps 750 mmHg 72%
    09:00 +12°C° 0.2 mm 4 mps 750 mmHg 67%
    10:00 +13°C° 0.2 mm 4 mps 750 mmHg 63%
    11:00 +14°C° 0.1 mm 5 mps 749 mmHg 61%
    12:00 +14°C° 0.1 mm 5 mps 749 mmHg 60%
    13:00 +14°C° 0.1 mm 5 mps 749 mmHg 58%
    14:00 +14°C° 0 mm 5 mps 748 mmHg 62%
    15:00 +13°C° 0 mm 5 mps 748 mmHg 65%
    16:00 +12°C° 0 mm 5 mps 747 mmHg 69%
    17:00 +11°C° 0.2 mm 6 mps 747 mmHg 71%
    18:00 +11°C° 0.2 mm 6 mps 746 mmHg 73%
    19:00 +10°C° 0.2 mm 7 mps 745 mmHg 74%
    20:00 +10°C° 0.1 mm 7 mps 744 mmHg 76%
    21:00 +10°C° 0.1 mm 7 mps 743 mmHg 77%
    22:00 +10°C° 0.1 mm 8 mps 742 mmHg 78%
    23:00 +10°C° 3.3 mm 7 mps 741 mmHg 83%

    Pasado mañana, 14 Diciembre, Sábado

    Tiempo Temperatura Precipitaciones Viento Presión Humedad
    00:00 +10°C° 3.3 mm 7 mps 740 mmHg 87%
    01:00 +10°C° 3.3 mm 7 mps 739 mmHg 92%
    02:00 +10°C° 2.1 mm 6 mps 739 mmHg 90%
    03:00 +10°C° 2.1 mm 5 mps 738 mmHg 88%
    04:00 +11°C° 2.1 mm 4 mps 738 mmHg 86%
    05:00 +11°C° 2.5 mm 4 mps 739 mmHg 88%
    06:00 +10°C° 2.5 mm 4 mps 739 mmHg 90%
    07:00 +10°C° 2.5 mm 3 mps 740 mmHg 92%
    08:00 +10°C° 0.4 mm 3 mps 741 mmHg 87%
    09:00 +11°C° 0.4 mm 3 mps 742 mmHg 83%
    10:00 +12°C° 0.4 mm 2 mps 742 mmHg 78%
    11:00 +12°C° 0 mm 3 mps 743 mmHg 76%
    12:00 +13°C° 0 mm 3 mps 744 mmHg 73%
    13:00 +14°C° 0 mm 4 mps 745 mmHg 71%
    14:00 +13°C° 0 mm 4 mps 746 mmHg 74%
    15:00 +13°C° 0 mm 5 mps 747 mmHg 76%
    16:00 +12°C° 0 mm 5 mps 748 mmHg 79%
    17:00 +12°C° 0 mm 4 mps 749 mmHg 79%
    18:00 +11°C° 0 mm 4 mps 750 mmHg 80%
    19:00 +11°C° 0 mm 3 mps 751 mmHg 80%
    20:00 +11°C° 0 mm 3 mps 752 mmHg 80%
    21:00 +11°C° 0 mm 3 mps 753 mmHg 81%
    22:00 +10°C° 0 mm 3 mps 754 mmHg 81%
    23:00 +10°C° 0 mm 3 mps 755 mmHg 81%

    15 Diciembre, Domingo

    Tiempo Temperatura Precipitaciones Viento Presión Humedad
    00:00 +10°C° 0 mm 2 mps 756 mmHg 81%
    01:00 +10°C° 0 mm 2 mps 756 mmHg 81%
    02:00 +10°C° 0 mm 2 mps 757 mmHg 80%
    03:00 +10°C° 0 mm 2 mps 758 mmHg 80%
    04:00 +10°C° 0 mm 2 mps 758 mmHg 79%
    05:00 +10°C° 0 mm 2 mps 759 mmHg 79%
    06:00 +10°C° 0 mm 2 mps 759 mmHg 78%
    07:00 +10°C° 0 mm 2 mps 760 mmHg 78%
    08:00 +12°C° 0 mm 2 mps 761 mmHg 75%
    09:00 +14°C° 0 mm 2 mps 761 mmHg 71%
    10:00 +15°C° 0 mm 2 mps 761 mmHg 68%
    11:00 +16°C° 0 mm 2 mps 762 mmHg 65%
    12:00 +19°C° 0 mm 1 mps 762 mmHg 61%
    13:00 +20°C° 0 mm 1 mps 762 mmHg 58%
    14:00 +19°C° 0 mm 1 mps 762 mmHg 63%
    15:00 +18°C° 0 mm 1 mps 762 mmHg 68%
    16:00 +16°C° 0 mm 1 mps 763 mmHg 73%
    17:00 +15°C° 0 mm 1 mps 763 mmHg 74%
    18:00 +15°C° 0 mm 1 mps 763 mmHg 76%
    19:00 +14°C° 0 mm 2 mps 764 mmHg 77%
    20:00 +14°C° 0 mm 2 mps 764 mmHg 77%
    21:00 +14°C° 0 mm 2 mps 765 mmHg 77%
    22:00 +13°C° 0 mm 2 mps 765 mmHg 77%
    23:00 +13°C° 0 mm 2 mps 765 mmHg 77%

    16 Diciembre, Lunes

    Tiempo Temperatura Precipitaciones Viento Presión Humedad
    00:00 +13°C° 0 mm 2 mps 765 mmHg 76%
    01:00 +13°C° 0 mm 2 mps 765 mmHg 76%
    02:00 +13°C° 0 mm 2 mps 766 mmHg 76%
    03:00 +13°C° 0 mm 2 mps 766 mmHg 76%
    04:00 +13°C° 0 mm 2 mps 766 mmHg 76%
    05:00 +13°C° 0 mm 2 mps 766 mmHg 77%
    06:00 +12°C° 0 mm 2 mps 766 mmHg 77%
    07:00 +11°C° 0 mm 3 mps 767 mmHg 77%
    08:00 +14°C° 0 mm 2 mps 767 mmHg 74%
    09:00 +15°C° 0 mm 2 mps 767 mmHg 71%
    10:00 +17°C° 0 mm 2 mps 767 mmHg 67%
    11:00 +17°C° 0 mm 2 mps 767 mmHg 66%
    12:00 +18°C° 0 mm 2 mps 767 mmHg 64%
    13:00 +19°C° 0 mm 2 mps 766 mmHg 63%
    14:00 +18°C° 0 mm 2 mps 766 mmHg 67%
    15:00 +17°C° 0 mm 2 mps 766 mmHg 72%
    16:00 +16°C° 0 mm 2 mps 766 mmHg 76%
    17:00 +16°C° 0 mm 2 mps 766 mmHg 77%
    18:00 +15°C° 0 mm 2 mps 766 mmHg 78%
    19:00 +13°C° 0 mm 3 mps 767 mmHg 78%
    20:00 +13°C° 0 mm 3 mps 767 mmHg 79%
    21:00 +13°C° 0 mm 3 mps 767 mmHg 80%
    22:00 +13°C° 0 mm 3 mps 767 mmHg 81%
    23:00 +12°C° 0 mm 3 mps 767 mmHg 81%

    17 Diciembre, Martes

    Tiempo Temperatura Precipitaciones Viento Presión Humedad
    00:00 +12°C° 0 mm 3 mps 767 mmHg 82%
    01:00 +12°C° 0 mm 3 mps 767 mmHg 82%
    02:00 +12°C° 0 mm 3 mps 767 mmHg 82%
    03:00 +12°C° 0 mm 3 mps 767 mmHg 81%
    04:00 +11°C° 0 mm 3 mps 767 mmHg 81%
    05:00 +11°C° 0 mm 3 mps 767 mmHg 81%
    06:00 +11°C° 0 mm 3 mps 767 mmHg 81%
    07:00 +11°C° 0 mm 3 mps 767 mmHg 80%
    08:00 +13°C° 0 mm 3 mps 767 mmHg 77%
    09:00 +14°C° 0 mm 3 mps 767 mmHg 73%
    10:00 +17°C° 0 mm 2 mps 767 mmHg 69%
    11:00 +18°C° 0 mm 2 mps 767 mmHg 66%
    12:00 +18°C° 0 mm 2 mps 766 mmHg 64%
    13:00 +19°C° 0 mm 2 mps 766 mmHg 61%
    14:00 +18°C° 0 mm 2 mps 766 mmHg 66%
    15:00 +17°C° 0 mm 2 mps 766 mmHg 70%
    16:00 +17°C° 0 mm 2 mps 766 mmHg 75%
    17:00 +16°C° 0 mm 2 mps 766 mmHg 76%
    18:00 +15°C° 0 mm 2 mps 766 mmHg 77%
    19:00 +15°C° 0 mm 2 mps 766 mmHg 78%
    20:00 +14°C° 0 mm 2 mps 766 mmHg 79%
    21:00 +14°C° 0 mm 2 mps 767 mmHg 80%
    22:00 +14°C° 0 mm 2 mps 767 mmHg 80%
    23:00 +14°C° 0 mm 2 mps 767 mmHg 80%
    Mostrar más